PGT2YB LTFJ-LEBB

Flight info

Callsign PGT2YB
Flight time 3h 51m
Altitude 36000
Route BARPE UG12 GOLDO DCT PINDO DCT ADDER DCT OVVER DCT TIRCA DCT GOKEL/N0442F350 DCT VEXUV/N0442F360 DCT ROXAN/N0443F370 DCT OKIDO DCT EPIKU/N0442F360 DCT GINOX DCT KIFMI DCT ELVOP DCT MUREN DCT CHELY DCT VERSO DCT SULID DCT SADEM DCT BCN DCT CAVES DCT VIBOK DCT REBUL DCT GEMAS DCT ALOSU DCT GRAUS DCT POSSY DCT MARIO/N0440F370 M601 CEGAM
Aircraft B738/M-SDE2E3FGHIRWXY/LB1

Departure

Time 2026-04-27 16:44
Airport Istanbul Sabiha Gökçen International Airport (LTFJ)

Arrival

Time 2026-04-27 20:36
Airport Bilbao Airport (LEBB)
Time Latitude Longitude Altitude Speed Heading
2026-04-27 16:13 40.90670 29.31751 320 ft 0 kts 334°
2026-04-27 16:30 40.90661 29.31756 320 ft 3 kts 332°
2026-04-27 16:31 40.90614 29.31805 320 ft 3 kts 306°
2026-04-27 16:31 40.90602 29.31849 319 ft 2 kts 249°
2026-04-27 16:32 40.90604 29.31853 318 ft 0 kts 244°
2026-04-27 16:36 40.90597 29.31838 320 ft 4 kts 242°
2026-04-27 16:36 40.90581 29.31798 320 ft 7 kts 242°
2026-04-27 16:36 40.90559 29.31743 320 ft 7 kts 243°
2026-04-27 16:36 40.90539 29.31687 320 ft 7 kts 244°
2026-04-27 16:37 40.90511 29.31612 318 ft 12 kts 244°
2026-04-27 16:37 40.90477 29.31517 320 ft 11 kts 244°
2026-04-27 16:37 40.90433 29.31436 320 ft 11 kts 203°
2026-04-27 16:37 40.90365 29.31467 320 ft 11 kts 150°
2026-04-27 16:38 40.90290 29.31494 320 ft 12 kts 192°
2026-04-27 16:38 40.90242 29.31402 320 ft 12 kts 244°
2026-04-27 16:38 40.90205 29.31301 320 ft 12 kts 245°
2026-04-27 16:38 40.90168 29.31202 320 ft 12 kts 245°
2026-04-27 16:39 40.90133 29.31105 319 ft 13 kts 244°
2026-04-27 16:39 40.90078 29.30956 319 ft 22 kts 244°
2026-04-27 16:39 40.90012 29.30779 320 ft 21 kts 244°
2026-04-27 16:39 40.89949 29.30606 320 ft 21 kts 244°
2026-04-27 16:40 40.89887 29.30439 320 ft 20 kts 244°
2026-04-27 16:40 40.89828 29.30276 320 ft 19 kts 244°
2026-04-27 16:40 40.89770 29.30120 320 ft 19 kts 243°
2026-04-27 16:40 40.89714 29.29969 319 ft 18 kts 244°
2026-04-27 16:41 40.89660 29.29822 319 ft 17 kts 243°
2026-04-27 16:41 40.89608 29.29681 320 ft 17 kts 244°
2026-04-27 16:41 40.89558 29.29544 319 ft 16 kts 244°
2026-04-27 16:41 40.89510 29.29413 319 ft 16 kts 244°
2026-04-27 16:42 40.89460 29.29290 319 ft 15 kts 231°
2026-04-27 16:42 40.89375 29.29267 318 ft 6 kts 155°
2026-04-27 16:42 40.89368 29.29272 318 ft 0 kts 155°
2026-04-27 16:43 40.89344 29.29287 317 ft 7 kts 155°
2026-04-27 16:43 40.89291 29.29347 315 ft 12 kts 108°
2026-04-27 16:43 40.89314 29.29451 314 ft 12 kts 64°
2026-04-27 16:43 40.89356 29.29565 318 ft 23 kts 64°
2026-04-27 16:44 40.89527 29.30032 320 ft 89 kts 64°
2026-04-27 16:44 40.89891 29.31005 322 ft 145 kts 63°
2026-04-27 16:44 40.90372 29.32335 658 ft 171 kts 64°
2026-04-27 16:44 40.90926 29.33846 1378 ft 186 kts 64°
2026-04-27 16:45 40.91493 29.35390 2312 ft 187 kts 63°
2026-04-27 16:45 40.92059 29.36941 3005 ft 199 kts 70°
2026-04-27 16:45 40.92440 29.38819 3316 ft 224 kts 69°
2026-04-27 16:45 40.93127 29.40751 3694 ft 240 kts 55°
2026-04-27 16:46 40.94152 29.42511 4284 ft 244 kts 44°
2026-04-27 16:46 40.95438 29.43979 4823 ft 246 kts 32°
2026-04-27 16:46 40.96938 29.45088 5390 ft 247 kts 20°
2026-04-27 16:46 40.98583 29.45786 5922 ft 255 kts 10°
2026-04-27 16:47 41.00402 29.46076 6370 ft 268 kts 359°
2026-04-27 16:47 41.02261 29.45918 6894 ft 268 kts 349°
2026-04-27 16:47 41.04070 29.45337 6981 ft 269 kts 339°
2026-04-27 16:47 41.05783 29.44322 7002 ft 270 kts 329°
2026-04-27 16:48 41.07319 29.42916 7000 ft 267 kts 319°
2026-04-27 16:48 41.08624 29.41168 7011 ft 266 kts 308°
2026-04-27 16:48 41.09661 29.39132 7021 ft 267 kts 298°
2026-04-27 16:49 41.10828 29.34423 7008 ft 269 kts 278°
2026-04-27 16:49 41.10884 29.31993 7455 ft 269 kts 268°
2026-04-27 16:49 41.10744 29.29482 7945 ft 277 kts 266°
2026-04-27 16:49 41.10568 29.26934 8422 ft 277 kts 266°
2026-04-27 16:50 41.10384 29.24395 8933 ft 279 kts 266°
2026-04-27 16:50 41.10190 29.21805 9457 ft 284 kts 266°
2026-04-27 16:50 41.09992 29.19198 9973 ft 285 kts 266°
2026-04-27 16:50 41.09819 29.16939 10398 ft 287 kts 266°
2026-04-27 16:51 41.09612 29.14259 10517 ft 297 kts 266°
2026-04-27 16:51 41.09406 29.11536 10409 ft 294 kts 266°
2026-04-27 16:51 41.09213 29.08849 10466 ft 295 kts 266°
2026-04-27 16:51 41.09019 29.06061 10592 ft 314 kts 266°
2026-04-27 16:52 41.08818 29.03079 10796 ft 336 kts 266°
2026-04-27 16:52 41.08603 28.99953 11294 ft 345 kts 266°
2026-04-27 16:52 41.08380 28.96769 12013 ft 347 kts 266°
2026-04-27 16:52 41.08155 28.93580 12743 ft 349 kts 266°
2026-04-27 16:53 41.07925 28.90353 13452 ft 353 kts 266°
2026-04-27 16:53 41.07693 28.87101 14117 ft 356 kts 266°
2026-04-27 16:53 41.07459 28.83823 14743 ft 359 kts 266°
2026-04-27 16:53 41.07221 28.80521 15399 ft 360 kts 266°
2026-04-27 16:54 41.06982 28.77202 16030 ft 363 kts 266°
2026-04-27 16:54 41.06740 28.73862 16666 ft 365 kts 266°
2026-04-27 16:54 41.06495 28.70495 17292 ft 368 kts 266°
2026-04-27 16:54 41.06248 28.67111 17899 ft 371 kts 266°
2026-04-27 16:55 41.05998 28.63695 18503 ft 373 kts 266°
2026-04-27 16:55 41.05748 28.60303 19036 ft 376 kts 266°
2026-04-27 16:55 41.05492 28.56836 19537 ft 379 kts 266°
2026-04-27 16:55 41.05233 28.53350 20039 ft 382 kts 266°
2026-04-27 16:56 41.04971 28.49840 20547 ft 384 kts 266°
2026-04-27 16:56 41.04707 28.46300 21055 ft 387 kts 265°
2026-04-27 16:56 41.04438 28.42727 21542 ft 390 kts 265°
2026-04-27 16:56 41.04168 28.39140 22032 ft 393 kts 265°
2026-04-27 16:57 41.03894 28.35536 22501 ft 395 kts 265°
2026-04-27 16:57 41.03617 28.31891 22966 ft 398 kts 265°
2026-04-27 16:57 41.03337 28.28229 23392 ft 401 kts 265°
2026-04-27 16:57 41.03054 28.24543 23819 ft 404 kts 265°
2026-04-27 16:58 41.02768 28.20826 24211 ft 406 kts 265°
2026-04-27 16:58 41.02480 28.17101 24608 ft 407 kts 265°
2026-04-27 16:58 41.02192 28.13404 24990 ft 409 kts 265°
2026-04-27 16:58 41.01899 28.09654 25373 ft 410 kts 265°
2026-04-27 16:59 41.01604 28.05885 25738 ft 412 kts 265°
2026-04-27 16:59 41.01306 28.02102 26095 ft 414 kts 265°
2026-04-27 16:59 41.01006 27.98308 26448 ft 416 kts 265°
2026-04-27 16:59 41.00703 27.94490 26806 ft 417 kts 265°
2026-04-27 17:00 41.00294 27.89355 27256 ft 420 kts 265°
2026-04-27 17:00 40.99780 27.82961 27836 ft 422 kts 265°
2026-04-27 17:00 40.99467 27.79078 28173 ft 424 kts 265°
2026-04-27 17:01 40.99151 27.75187 28497 ft 425 kts 265°
2026-04-27 17:01 40.98834 27.71291 28799 ft 427 kts 265°
2026-04-27 17:01 40.98514 27.67377 29083 ft 429 kts 265°
2026-04-27 17:01 40.98192 27.63448 29395 ft 430 kts 265°
2026-04-27 17:02 40.97867 27.59506 29695 ft 431 kts 265°
2026-04-27 17:02 40.97540 27.55559 29985 ft 432 kts 265°
2026-04-27 17:02 40.97211 27.51610 30352 ft 431 kts 265°
2026-04-27 17:02 40.96882 27.47674 30725 ft 429 kts 265°
2026-04-27 17:03 40.96553 27.43760 31080 ft 427 kts 265°
2026-04-27 17:03 40.96228 27.39903 31383 ft 427 kts 265°
2026-04-27 17:03 40.95894 27.35951 31685 ft 426 kts 265°
2026-04-27 17:03 40.95569 27.32112 31977 ft 425 kts 265°
2026-04-27 17:04 40.95238 27.28228 32267 ft 425 kts 265°
2026-04-27 17:04 40.94906 27.24351 32575 ft 424 kts 265°
2026-04-27 17:04 40.94573 27.20476 32858 ft 423 kts 265°
2026-04-27 17:04 40.94240 27.16608 33122 ft 423 kts 265°
2026-04-27 17:05 40.93905 27.12745 33409 ft 422 kts 265°
2026-04-27 17:05 40.93570 27.08891 33699 ft 422 kts 265°
2026-04-27 17:05 40.93235 27.05038 33964 ft 421 kts 265°
2026-04-27 17:05 40.93009 27.02453 34124 ft 421 kts 265°
2026-04-27 17:06 40.92561 26.97346 34412 ft 421 kts 266°
2026-04-27 17:06 40.92281 26.93492 34628 ft 420 kts 268°
2026-04-27 17:06 40.92060 26.89652 34864 ft 419 kts 268°
2026-04-27 17:06 40.91858 26.85812 35075 ft 418 kts 268°
2026-04-27 17:07 40.91724 26.83270 35202 ft 418 kts 268°
2026-04-27 17:07 40.91444 26.78126 35433 ft 419 kts 268°
2026-04-27 17:07 40.91300 26.75579 35555 ft 419 kts 268°
2026-04-27 17:07 40.91078 26.71748 35785 ft 418 kts 268°
2026-04-27 17:08 40.90852 26.67929 35999 ft 417 kts 268°
2026-04-27 17:08 40.90623 26.64102 36164 ft 417 kts 268°
2026-04-27 17:08 40.90391 26.60262 36174 ft 420 kts 268°
2026-04-27 17:09 40.89923 26.52568 36185 ft 419 kts 268°
2026-04-27 17:09 40.89469 26.44912 36175 ft 416 kts 268°
2026-04-27 17:10 40.89078 26.37286 36190 ft 415 kts 269°
2026-04-27 17:10 40.88695 26.29717 36164 ft 415 kts 269°
2026-04-27 17:11 40.88299 26.22116 36171 ft 415 kts 268°
2026-04-27 17:11 40.87688 26.10713 36159 ft 415 kts 268°
2026-04-27 17:12 40.87063 25.99294 36156 ft 416 kts 268°
2026-04-27 17:13 40.86640 25.91672 36158 ft 416 kts 268°
2026-04-27 17:13 40.86210 25.84035 36160 ft 417 kts 268°
2026-04-27 17:14 40.85775 25.76385 36163 ft 418 kts 268°
2026-04-27 17:14 40.85339 25.68807 36167 ft 419 kts 268°
2026-04-27 17:15 40.85323 25.68540 36170 ft 419 kts 268°
2026-04-27 17:16 40.84951 25.62169 36156 ft 417 kts 268°
2026-04-27 17:17 40.84503 25.54554 36167 ft 414 kts 268°
2026-04-27 17:17 40.84052 25.46968 36181 ft 415 kts 268°
2026-04-27 17:18 40.83361 25.35494 36182 ft 420 kts 268°
2026-04-27 17:18 40.82893 25.27829 36176 ft 422 kts 268°
2026-04-27 17:19 40.82414 25.20094 36171 ft 423 kts 268°
2026-04-27 17:19 40.81931 25.12365 36168 ft 422 kts 268°
2026-04-27 17:20 40.81443 25.04659 36163 ft 420 kts 268°
2026-04-27 17:20 40.81199 25.00819 36265 ft 419 kts 266°
2026-04-27 17:20 40.80953 24.96977 36211 ft 419 kts 266°
2026-04-27 17:21 40.80459 24.89313 36175 ft 417 kts 266°
2026-04-27 17:21 40.79962 24.81697 36157 ft 416 kts 266°
2026-04-27 17:22 40.79461 24.74093 36163 ft 416 kts 266°
2026-04-27 17:22 40.78954 24.66464 36166 ft 418 kts 266°
2026-04-27 17:23 40.78442 24.58842 36162 ft 420 kts 266°
2026-04-27 17:23 40.77922 24.51196 36144 ft 415 kts 266°
2026-04-27 17:24 40.77400 24.43579 36159 ft 419 kts 266°
2026-04-27 17:24 40.76870 24.35905 36172 ft 421 kts 266°
2026-04-27 17:25 40.76330 24.28176 36172 ft 424 kts 266°
2026-04-27 17:25 40.75783 24.20431 36170 ft 424 kts 266°
2026-04-27 17:26 40.75231 24.12679 36170 ft 424 kts 266°
2026-04-27 17:26 40.74674 24.04950 36171 ft 422 kts 266°
2026-04-27 17:27 40.74116 23.97258 36173 ft 420 kts 266°
2026-04-27 17:27 40.73558 23.89651 36165 ft 418 kts 266°
2026-04-27 17:28 40.72996 23.82044 36169 ft 416 kts 266°
2026-04-27 17:29 40.72148 23.70700 36171 ft 413 kts 266°
2026-04-27 17:29 40.71578 23.63166 36175 ft 412 kts 266°
2026-04-27 17:30 40.71316 23.59718 36180 ft 412 kts 266°
2026-04-27 17:31 40.70743 23.52236 36171 ft 413 kts 266°
2026-04-27 17:31 40.70161 23.44691 36168 ft 414 kts 266°
2026-04-27 17:32 40.69273 23.33323 36164 ft 417 kts 266°
2026-04-27 17:33 40.68673 23.25714 36160 ft 418 kts 266°
2026-04-27 17:33 40.68068 23.18112 36165 ft 419 kts 266°
2026-04-27 17:34 40.67454 23.10458 36160 ft 420 kts 265°
2026-04-27 17:34 40.66833 23.02784 36162 ft 421 kts 265°
2026-04-27 17:35 40.66210 22.95148 36156 ft 421 kts 265°
2026-04-27 17:35 40.65579 22.87480 36154 ft 420 kts 265°
2026-04-27 17:36 40.64943 22.79825 36157 ft 419 kts 265°
2026-04-27 17:36 40.64305 22.72187 36151 ft 418 kts 265°
2026-04-27 17:37 40.63669 22.64646 36151 ft 416 kts 265°
2026-04-27 17:37 40.63026 22.57077 36153 ft 414 kts 265°
2026-04-27 17:38 40.62381 22.49545 36152 ft 413 kts 265°
2026-04-27 17:38 40.61732 22.42028 36150 ft 413 kts 265°
2026-04-27 17:39 40.61080 22.34520 36157 ft 412 kts 265°
2026-04-27 17:39 40.60426 22.27059 36155 ft 412 kts 265°
2026-04-27 17:40 40.59764 22.19557 36151 ft 413 kts 265°
2026-04-27 17:40 40.59096 22.12049 36146 ft 414 kts 265°
2026-04-27 17:41 40.58421 22.04515 36139 ft 414 kts 265°
2026-04-27 17:41 40.57740 21.96970 36132 ft 415 kts 265°
2026-04-27 17:42 40.57056 21.89459 36143 ft 415 kts 265°
2026-04-27 17:42 40.56365 21.81911 36140 ft 416 kts 265°
2026-04-27 17:43 40.55666 21.74339 36129 ft 417 kts 265°
2026-04-27 17:43 40.54963 21.66773 36123 ft 416 kts 265°
2026-04-27 17:44 40.54262 21.59290 36125 ft 413 kts 265°
2026-04-27 17:44 40.53555 21.51795 36126 ft 413 kts 264°
2026-04-27 17:45 40.52840 21.44259 36123 ft 415 kts 265°
2026-04-27 17:45 40.52118 21.36708 36121 ft 418 kts 264°
2026-04-27 17:46 40.51388 21.29124 36120 ft 418 kts 264°
2026-04-27 17:46 40.50661 21.21631 36113 ft 413 kts 264°
2026-04-27 17:47 40.49932 21.14161 36111 ft 410 kts 264°
2026-04-27 17:47 40.49203 21.06741 36119 ft 408 kts 264°
2026-04-27 17:48 40.48472 20.99341 36119 ft 408 kts 264°
2026-04-27 17:48 40.48273 20.91931 36122 ft 405 kts 276°
2026-04-27 17:49 40.48808 20.84589 36120 ft 407 kts 276°
2026-04-27 17:49 40.49344 20.77172 36125 ft 410 kts 276°
2026-04-27 17:50 40.49857 20.69665 36126 ft 412 kts 276°
2026-04-27 17:50 40.50602 20.58411 36109 ft 415 kts 276°
2026-04-27 17:51 40.51096 20.50839 36112 ft 416 kts 276°
2026-04-27 17:51 40.51586 20.43248 36100 ft 416 kts 276°
2026-04-27 17:52 40.52073 20.35670 36101 ft 415 kts 276°
2026-04-27 17:52 40.52469 20.29410 36073 ft 409 kts 276°
2026-04-27 17:53 40.53009 20.20751 36101 ft 408 kts 276°
2026-04-27 17:53 40.53392 20.14558 36093 ft 408 kts 276°
2026-04-27 17:54 40.53851 20.07063 36095 ft 413 kts 275°
2026-04-27 17:54 40.54305 19.99541 36083 ft 411 kts 275°
2026-04-27 17:55 40.54734 19.92054 36078 ft 409 kts 275°
2026-04-27 17:55 40.55157 19.84613 36076 ft 410 kts 275°
2026-04-27 17:56 40.55590 19.77121 36071 ft 411 kts 275°
2026-04-27 17:56 40.56023 19.69631 36071 ft 410 kts 275°
2026-04-27 17:57 40.56450 19.62149 36079 ft 410 kts 275°
2026-04-27 17:57 40.56872 19.54657 36066 ft 411 kts 275°
2026-04-27 17:58 40.57286 19.47211 36070 ft 410 kts 275°
2026-04-27 17:58 40.57697 19.39735 36068 ft 409 kts 275°
2026-04-27 17:59 40.58103 19.32251 36068 ft 410 kts 275°
2026-04-27 17:59 40.58506 19.24745 36074 ft 410 kts 275°
2026-04-27 18:00 40.58904 19.17245 36067 ft 411 kts 275°
2026-04-27 18:00 40.59294 19.09790 36068 ft 410 kts 275°
2026-04-27 18:01 40.59682 19.02304 36070 ft 410 kts 275°
2026-04-27 18:01 40.60043 18.94793 36066 ft 410 kts 274°
2026-04-27 18:02 40.60359 18.87282 36068 ft 410 kts 274°
2026-04-27 18:02 40.60665 18.79826 36073 ft 411 kts 274°
2026-04-27 18:03 40.60973 18.72321 36070 ft 411 kts 274°
2026-04-27 18:03 40.61280 18.64795 36068 ft 410 kts 274°
2026-04-27 18:04 40.61580 18.57330 36081 ft 411 kts 274°
2026-04-27 18:04 40.61878 18.49803 36069 ft 411 kts 274°
2026-04-27 18:05 40.62171 18.42277 36074 ft 411 kts 274°
2026-04-27 18:05 40.62459 18.34761 36074 ft 410 kts 274°
2026-04-27 18:06 40.62739 18.27308 36071 ft 410 kts 274°
2026-04-27 18:06 40.63016 18.19815 36081 ft 410 kts 274°
2026-04-27 18:07 40.63290 18.12290 36078 ft 412 kts 274°
2026-04-27 18:07 40.63559 18.04742 36071 ft 412 kts 274°
2026-04-27 18:08 40.63823 17.97215 36075 ft 411 kts 274°
2026-04-27 18:08 40.64081 17.89703 36071 ft 410 kts 274°
2026-04-27 18:09 40.64333 17.82210 36078 ft 410 kts 274°
2026-04-27 18:09 40.64583 17.74674 36080 ft 413 kts 274°
2026-04-27 18:10 40.64826 17.67162 36075 ft 412 kts 274°
2026-04-27 18:10 40.65065 17.59629 36075 ft 411 kts 274°
2026-04-27 18:11 40.65299 17.52110 36074 ft 410 kts 274°
2026-04-27 18:11 40.65529 17.44578 36089 ft 413 kts 274°
2026-04-27 18:12 40.65756 17.36986 36080 ft 416 kts 274°
2026-04-27 18:12 40.65977 17.29402 36079 ft 417 kts 273°
2026-04-27 18:13 40.66194 17.21755 36079 ft 418 kts 273°
2026-04-27 18:13 40.66407 17.14105 36096 ft 418 kts 273°
2026-04-27 18:14 40.66615 17.06459 36096 ft 417 kts 273°
2026-04-27 18:14 40.66817 16.98835 36100 ft 415 kts 273°
2026-04-27 18:15 40.67012 16.91281 36102 ft 414 kts 273°
2026-04-27 18:15 40.67203 16.83692 36096 ft 413 kts 273°
2026-04-27 18:16 40.67389 16.76136 36099 ft 412 kts 273°
2026-04-27 18:16 40.67568 16.68647 36096 ft 411 kts 273°
2026-04-27 18:17 40.67743 16.61118 36095 ft 411 kts 273°
2026-04-27 18:17 40.67913 16.53570 36103 ft 412 kts 273°
2026-04-27 18:18 40.68080 16.45998 36111 ft 415 kts 273°
2026-04-27 18:18 40.68242 16.38412 36111 ft 419 kts 273°
2026-04-27 18:19 40.68400 16.30712 36101 ft 421 kts 273°
2026-04-27 18:19 40.68554 16.22989 36085 ft 419 kts 273°
2026-04-27 18:20 40.68700 16.15390 36084 ft 412 kts 273°
2026-04-27 18:20 40.68840 16.07857 36092 ft 411 kts 273°
2026-04-27 18:21 40.68975 16.00370 36096 ft 410 kts 273°
2026-04-27 18:21 40.69106 15.92838 36102 ft 411 kts 272°
2026-04-27 18:22 40.69232 15.85303 36103 ft 412 kts 272°
2026-04-27 18:22 40.69354 15.77732 36107 ft 413 kts 272°
2026-04-27 18:23 40.69471 15.70135 36119 ft 415 kts 272°
2026-04-27 18:23 40.69567 15.63594 36112 ft 417 kts 272°
2026-04-27 18:24 40.69676 15.55924 36110 ft 419 kts 272°
2026-04-27 18:24 40.69780 15.48226 36112 ft 420 kts 272°
2026-04-27 18:25 40.69879 15.40518 36109 ft 421 kts 272°
2026-04-27 18:25 40.69972 15.32839 36111 ft 421 kts 272°
2026-04-27 18:26 40.70061 15.25109 36111 ft 421 kts 272°
2026-04-27 18:26 40.70145 15.17397 36093 ft 420 kts 272°
2026-04-27 18:27 40.70223 15.09692 36090 ft 418 kts 272°
2026-04-27 18:27 40.70295 15.02042 36096 ft 418 kts 272°
2026-04-27 18:28 40.70363 14.94410 36098 ft 418 kts 272°
2026-04-27 18:28 40.70426 14.86738 36098 ft 419 kts 272°
2026-04-27 18:29 40.70432 14.85963 36096 ft 419 kts 272°
2026-04-27 18:29 40.70459 14.82426 36104 ft 419 kts 272°
2026-04-27 18:30 40.70514 14.74754 36100 ft 419 kts 272°
2026-04-27 18:30 40.70564 14.67064 36114 ft 420 kts 272°
2026-04-27 18:31 40.70609 14.59348 36103 ft 421 kts 272°
2026-04-27 18:31 40.70649 14.51687 36099 ft 422 kts 272°
2026-04-27 18:32 40.70683 14.43953 36096 ft 418 kts 272°
2026-04-27 18:32 40.70712 14.36299 36108 ft 418 kts 272°
2026-04-27 18:33 40.70738 14.28601 36114 ft 422 kts 271°
2026-04-27 18:33 40.70757 14.20827 36113 ft 425 kts 271°
2026-04-27 18:34 40.70772 14.13048 36114 ft 427 kts 271°
2026-04-27 18:34 40.70781 14.05218 36103 ft 427 kts 271°
2026-04-27 18:35 40.70784 13.97425 36102 ft 427 kts 271°
2026-04-27 18:35 40.70783 13.89573 36106 ft 425 kts 271°
2026-04-27 18:36 40.70776 13.81840 36105 ft 423 kts 271°
2026-04-27 18:36 40.70764 13.74092 36102 ft 421 kts 271°
2026-04-27 18:37 40.70747 13.66372 36112 ft 420 kts 271°
2026-04-27 18:37 40.70725 13.58670 36106 ft 419 kts 271°
2026-04-27 18:38 40.70699 13.51037 36112 ft 418 kts 271°
2026-04-27 18:38 40.70667 13.43354 36112 ft 419 kts 271°
2026-04-27 18:39 40.70638 13.36969 36114 ft 419 kts 271°
2026-04-27 18:39 40.70623 13.29260 36111 ft 420 kts 274°
2026-04-27 18:40 40.71068 13.21563 36121 ft 421 kts 276°
2026-04-27 18:40 40.71642 13.13903 36117 ft 423 kts 276°
2026-04-27 18:41 40.72198 13.06167 36111 ft 424 kts 276°
2026-04-27 18:41 40.72725 12.98401 36103 ft 425 kts 276°
2026-04-27 18:42 40.73151 12.91921 36120 ft 426 kts 276°
2026-04-27 18:42 40.73739 12.82853 36111 ft 427 kts 276°
2026-04-27 18:43 40.74239 12.75049 36121 ft 427 kts 276°
2026-04-27 18:43 40.74734 12.67249 36116 ft 426 kts 276°
2026-04-27 18:44 40.75221 12.59497 36118 ft 426 kts 276°
2026-04-27 18:44 40.75704 12.51716 36121 ft 425 kts 276°
2026-04-27 18:45 40.76182 12.43937 36120 ft 424 kts 275°
2026-04-27 18:45 40.76653 12.36181 36117 ft 424 kts 275°
2026-04-27 18:46 40.77119 12.28429 36120 ft 423 kts 275°
2026-04-27 18:46 40.77574 12.20767 36120 ft 423 kts 275°
2026-04-27 18:47 40.78027 12.13066 36121 ft 423 kts 275°
2026-04-27 18:47 40.78477 12.05318 36117 ft 423 kts 275°
2026-04-27 18:48 40.78922 11.97571 36125 ft 424 kts 275°
2026-04-27 18:48 40.79364 11.89771 36126 ft 427 kts 275°
2026-04-27 18:49 40.79803 11.81939 36122 ft 428 kts 275°
2026-04-27 18:49 40.80234 11.74144 36120 ft 429 kts 275°
2026-04-27 18:50 40.80665 11.66274 36120 ft 430 kts 275°
2026-04-27 18:50 40.81090 11.58394 36122 ft 429 kts 275°
2026-04-27 18:51 40.81507 11.50570 36121 ft 428 kts 275°
2026-04-27 18:51 40.81919 11.42741 36117 ft 427 kts 275°
2026-04-27 18:52 40.82325 11.34921 36119 ft 426 kts 275°
2026-04-27 18:53 40.82923 11.23245 36117 ft 424 kts 275°
2026-04-27 18:53 40.83127 11.15444 36119 ft 424 kts 271°
2026-04-27 18:54 40.83135 11.07694 36125 ft 425 kts 271°
2026-04-27 18:54 40.83138 10.99863 36124 ft 428 kts 271°
2026-04-27 18:55 40.83161 10.91955 36119 ft 431 kts 271°
2026-04-27 18:55 40.83189 10.84008 36113 ft 432 kts 271°
2026-04-27 18:56 40.83215 10.76093 36112 ft 431 kts 271°
2026-04-27 18:56 40.83234 10.68227 36110 ft 426 kts 271°
2026-04-27 18:57 40.83249 10.60401 36125 ft 427 kts 271°
2026-04-27 18:57 40.83258 10.52548 36113 ft 428 kts 271°
2026-04-27 18:58 40.83261 10.44668 36112 ft 426 kts 271°
2026-04-27 18:58 40.83259 10.36885 36110 ft 425 kts 271°
2026-04-27 18:59 40.83252 10.29083 36112 ft 424 kts 271°
2026-04-27 18:59 40.83239 10.21333 36111 ft 424 kts 271°
2026-04-27 19:00 40.83222 10.13543 36109 ft 424 kts 271°
2026-04-27 19:00 40.83199 10.05735 36117 ft 429 kts 271°
2026-04-27 19:01 40.83171 9.97815 36110 ft 433 kts 271°
2026-04-27 19:01 40.83137 9.89829 36098 ft 435 kts 270°
2026-04-27 19:02 40.83098 9.81866 36080 ft 431 kts 271°
2026-04-27 19:02 40.83215 9.74063 36082 ft 425 kts 273°
2026-04-27 19:03 40.83420 9.66215 36084 ft 425 kts 273°
2026-04-27 19:03 40.83607 9.58438 36080 ft 426 kts 272°
2026-04-27 19:04 40.83773 9.50604 36077 ft 427 kts 272°
2026-04-27 19:04 40.83927 9.42759 36082 ft 428 kts 272°
2026-04-27 19:05 40.84074 9.34888 36074 ft 429 kts 272°
2026-04-27 19:05 40.84217 9.26999 36095 ft 430 kts 272°
2026-04-27 19:06 40.84355 9.19095 36091 ft 431 kts 272°
2026-04-27 19:06 40.84487 9.11220 36109 ft 431 kts 272°
2026-04-27 19:07 40.84614 9.03283 36110 ft 432 kts 272°
2026-04-27 19:07 40.84736 8.95339 36109 ft 433 kts 272°
2026-04-27 19:08 40.84853 8.87394 36104 ft 433 kts 272°
2026-04-27 19:08 40.84965 8.79452 36111 ft 432 kts 272°
2026-04-27 19:09 40.85070 8.71560 36117 ft 432 kts 272°
2026-04-27 19:09 40.85170 8.63617 36111 ft 431 kts 272°
2026-04-27 19:10 40.85265 8.55723 36100 ft 430 kts 272°
2026-04-27 19:10 40.85354 8.47817 36107 ft 429 kts 272°
2026-04-27 19:11 40.85438 8.39957 36109 ft 428 kts 272°
2026-04-27 19:11 40.85516 8.32102 36107 ft 428 kts 272°
2026-04-27 19:12 40.85589 8.24218 36109 ft 427 kts 272°
2026-04-27 19:12 40.85657 8.16402 36107 ft 427 kts 272°
2026-04-27 19:13 40.85753 8.08507 36105 ft 427 kts 274°
2026-04-27 19:13 40.86145 8.00735 36110 ft 427 kts 275°
2026-04-27 19:14 40.86643 7.92922 36111 ft 427 kts 277°
2026-04-27 19:14 40.87210 7.85065 36109 ft 428 kts 277°
2026-04-27 19:15 40.87764 7.77245 36115 ft 429 kts 277°
2026-04-27 19:15 40.88303 7.69376 36113 ft 429 kts 276°
2026-04-27 19:16 40.88830 7.61522 36117 ft 430 kts 276°
2026-04-27 19:16 40.89351 7.53656 36108 ft 428 kts 276°
2026-04-27 19:17 40.89860 7.45878 36108 ft 427 kts 276°
2026-04-27 19:17 40.90367 7.38078 36108 ft 425 kts 276°
2026-04-27 19:18 40.90870 7.30252 36124 ft 429 kts 276°
2026-04-27 19:18 40.91371 7.22370 36112 ft 429 kts 276°
2026-04-27 19:19 40.91865 7.14515 36111 ft 427 kts 276°
2026-04-27 19:19 40.92352 7.06677 36115 ft 427 kts 276°
2026-04-27 19:20 40.92831 6.98898 36119 ft 428 kts 276°
2026-04-27 19:20 40.93311 6.91007 36112 ft 429 kts 276°
2026-04-27 19:21 40.93782 6.83160 36112 ft 428 kts 276°
2026-04-27 19:21 40.94249 6.75316 36113 ft 426 kts 276°
2026-04-27 19:22 40.94709 6.67483 36112 ft 426 kts 276°
2026-04-27 19:22 40.95159 6.59729 36117 ft 425 kts 276°
2026-04-27 19:23 40.95607 6.51933 36117 ft 425 kts 276°
2026-04-27 19:23 40.95975 6.45441 36123 ft 425 kts 276°
2026-04-27 19:24 40.96413 6.37640 36115 ft 425 kts 276°
2026-04-27 19:24 40.96847 6.29825 36114 ft 426 kts 276°
2026-04-27 19:25 40.97276 6.22004 36112 ft 426 kts 276°
2026-04-27 19:25 40.97698 6.14198 36113 ft 427 kts 276°
2026-04-27 19:26 40.98117 6.06358 36113 ft 427 kts 276°
2026-04-27 19:26 40.98530 5.98520 36112 ft 427 kts 276°
2026-04-27 19:27 40.98940 5.90638 36118 ft 428 kts 276°
2026-04-27 19:27 40.99343 5.82801 36112 ft 428 kts 275°
2026-04-27 19:28 40.99740 5.74965 36113 ft 428 kts 275°
2026-04-27 19:28 41.00133 5.67106 36112 ft 427 kts 275°
2026-04-27 19:29 41.00521 5.59248 36114 ft 427 kts 275°
2026-04-27 19:29 41.00901 5.51427 36114 ft 427 kts 275°
2026-04-27 19:30 41.01278 5.43586 36113 ft 427 kts 275°
2026-04-27 19:30 41.01655 5.35771 36112 ft 426 kts 275°
2026-04-27 19:31 41.02069 5.27916 36114 ft 426 kts 275°
2026-04-27 19:31 41.02481 5.20118 36114 ft 426 kts 275°
2026-04-27 19:32 41.02886 5.12272 36114 ft 426 kts 275°
2026-04-27 19:32 41.03283 5.04421 36113 ft 426 kts 275°
2026-04-27 19:33 41.03674 4.96597 36112 ft 426 kts 275°
2026-04-27 19:33 41.04060 4.88751 36114 ft 427 kts 275°
2026-04-27 19:34 41.04441 4.80929 36114 ft 427 kts 275°
2026-04-27 19:34 41.05023 4.73109 36115 ft 426 kts 279°
2026-04-27 19:35 41.05938 4.65348 36117 ft 426 kts 279°
2026-04-27 19:35 41.06769 4.57568 36113 ft 427 kts 279°
2026-04-27 19:36 41.07575 4.49788 36114 ft 427 kts 279°
2026-04-27 19:36 41.08401 4.42029 36113 ft 427 kts 279°
2026-04-27 19:37 41.09235 4.34238 36114 ft 427 kts 279°
2026-04-27 19:37 41.10064 4.26434 36114 ft 427 kts 278°
2026-04-27 19:38 41.10885 4.18630 36113 ft 427 kts 278°
2026-04-27 19:38 41.11699 4.10830 36116 ft 427 kts 278°
2026-04-27 19:39 41.12509 4.03022 36111 ft 427 kts 278°
2026-04-27 19:39 41.13314 3.95211 36110 ft 427 kts 278°
2026-04-27 19:40 41.14108 3.87452 36112 ft 427 kts 278°
2026-04-27 19:40 41.14904 3.79630 36112 ft 427 kts 278°
2026-04-27 19:41 41.15691 3.71796 36111 ft 428 kts 278°
2026-04-27 19:41 41.16464 3.63957 36110 ft 428 kts 277°
2026-04-27 19:42 41.17232 3.56112 36112 ft 428 kts 277°
2026-04-27 19:42 41.17993 3.48312 36111 ft 428 kts 277°
2026-04-27 19:43 41.18755 3.40463 36110 ft 428 kts 277°
2026-04-27 19:43 41.19524 3.32617 36112 ft 428 kts 277°
2026-04-27 19:44 41.20290 3.24765 36113 ft 428 kts 277°
2026-04-27 19:44 41.21048 3.16914 36110 ft 428 kts 277°
2026-04-27 19:45 41.21791 3.09120 36111 ft 428 kts 277°
2026-04-27 19:45 41.22533 3.01271 36111 ft 428 kts 277°
2026-04-27 19:46 41.23267 2.93446 36110 ft 426 kts 277°
2026-04-27 19:46 41.23996 2.85628 36116 ft 426 kts 277°
2026-04-27 19:47 41.24720 2.77812 36115 ft 426 kts 277°
2026-04-27 19:47 41.25440 2.69978 36115 ft 427 kts 277°
2026-04-27 19:48 41.26153 2.62154 36109 ft 426 kts 276°
2026-04-27 19:48 41.26860 2.54339 36111 ft 426 kts 276°
2026-04-27 19:49 41.27561 2.46527 36110 ft 425 kts 276°
2026-04-27 19:49 41.28257 2.38719 36110 ft 425 kts 276°
2026-04-27 19:50 41.28944 2.30949 36108 ft 425 kts 276°
2026-04-27 19:50 41.29629 2.23138 36107 ft 425 kts 276°
2026-04-27 19:51 41.30310 2.15324 36107 ft 425 kts 277°
2026-04-27 19:51 41.31775 2.07952 36103 ft 426 kts 294°
2026-04-27 19:52 41.34516 2.00987 36101 ft 428 kts 297°
2026-04-27 19:52 41.37361 1.94014 36110 ft 428 kts 297°
2026-04-27 19:53 41.41560 1.83491 36107 ft 428 kts 297°
2026-04-27 19:53 41.44310 1.76527 36110 ft 427 kts 297°
2026-04-27 19:54 41.47077 1.69511 36117 ft 427 kts 297°
2026-04-27 19:54 41.49842 1.62500 36118 ft 427 kts 297°
2026-04-27 19:55 41.52610 1.55503 36124 ft 426 kts 297°
2026-04-27 19:55 41.55373 1.48494 36126 ft 426 kts 296°
2026-04-27 19:56 41.58111 1.41475 36124 ft 425 kts 296°
2026-04-27 19:56 41.60819 1.34507 36121 ft 425 kts 296°
2026-04-27 19:57 41.63540 1.27493 36123 ft 425 kts 296°
2026-04-27 19:57 41.66255 1.20483 36106 ft 424 kts 296°
2026-04-27 19:58 41.68967 1.13466 36103 ft 424 kts 296°
2026-04-27 19:58 41.71668 1.06463 36101 ft 424 kts 296°
2026-04-27 19:59 41.74353 0.99495 36098 ft 424 kts 296°
2026-04-27 19:59 41.77052 0.92473 36111 ft 423 kts 296°
2026-04-27 20:00 41.79744 0.85452 36107 ft 423 kts 296°
2026-04-27 20:00 41.82433 0.78419 36100 ft 424 kts 296°
2026-04-27 20:01 41.85118 0.71386 36111 ft 424 kts 296°
2026-04-27 20:01 41.87793 0.64378 36104 ft 424 kts 296°
2026-04-27 20:02 41.90483 0.57319 36106 ft 424 kts 296°
2026-04-27 20:02 41.93170 0.50250 36105 ft 425 kts 296°
2026-04-27 20:03 41.95829 0.43161 36102 ft 425 kts 295°
2026-04-27 20:03 41.98481 0.36053 36104 ft 425 kts 295°
2026-04-27 20:04 42.01122 0.29010 36101 ft 424 kts 295°
2026-04-27 20:04 42.03348 0.23073 36100 ft 424 kts 295°
2026-04-27 20:05 42.06427 0.14830 36098 ft 423 kts 295°
2026-04-27 20:05 42.09069 0.07755 36092 ft 423 kts 295°
2026-04-27 20:06 42.11712 0.00668 36093 ft 422 kts 295°
2026-04-27 20:06 42.14344 -0.06412 36089 ft 422 kts 295°
2026-04-27 20:07 42.16948 -0.13434 36083 ft 419 kts 295°
2026-04-27 20:07 42.19520 -0.20385 36079 ft 410 kts 295°
2026-04-27 20:08 42.20787 -0.23816 35964 ft 410 kts 295°
2026-04-27 20:08 42.22062 -0.27273 35586 ft 408 kts 295°
2026-04-27 20:08 42.23317 -0.30674 35210 ft 404 kts 295°
2026-04-27 20:08 42.24567 -0.34066 34830 ft 401 kts 295°
2026-04-27 20:09 42.25804 -0.37428 34445 ft 399 kts 295°
2026-04-27 20:09 42.27033 -0.40774 34070 ft 397 kts 295°
2026-04-27 20:09 42.28241 -0.44065 33642 ft 395 kts 295°
2026-04-27 20:09 42.29062 -0.46303 33361 ft 393 kts 295°
2026-04-27 20:10 42.30659 -0.50664 32846 ft 389 kts 295°
2026-04-27 20:10 42.31856 -0.53935 32471 ft 386 kts 295°
2026-04-27 20:10 42.33041 -0.57178 32100 ft 384 kts 294°
2026-04-27 20:10 42.34213 -0.60405 31735 ft 381 kts 294°
2026-04-27 20:11 42.35375 -0.63614 31378 ft 378 kts 294°
2026-04-27 20:11 42.36526 -0.66800 31017 ft 376 kts 294°
2026-04-27 20:11 42.37284 -0.68902 30782 ft 374 kts 294°
2026-04-27 20:11 42.38423 -0.72058 30435 ft 372 kts 294°
2026-04-27 20:12 42.39555 -0.75198 30075 ft 370 kts 294°
2026-04-27 20:12 42.40677 -0.78314 29656 ft 368 kts 294°
2026-04-27 20:12 42.41792 -0.81412 29287 ft 364 kts 294°
2026-04-27 20:12 42.42895 -0.84478 28903 ft 361 kts 294°
2026-04-27 20:13 42.43992 -0.87522 28565 ft 357 kts 294°
2026-04-27 20:13 42.45077 -0.90528 28188 ft 354 kts 294°
2026-04-27 20:13 42.46154 -0.93515 27832 ft 351 kts 294°
2026-04-27 20:13 42.47221 -0.96475 27482 ft 349 kts 294°
2026-04-27 20:14 42.48282 -0.99423 27127 ft 347 kts 293°
2026-04-27 20:14 42.49333 -1.02347 26785 ft 344 kts 293°
2026-04-27 20:14 42.50379 -1.05258 26471 ft 341 kts 293°
2026-04-27 20:14 42.51418 -1.08148 26148 ft 339 kts 293°
2026-04-27 20:15 42.52450 -1.11017 25810 ft 338 kts 293°
2026-04-27 20:15 42.53464 -1.13844 25482 ft 337 kts 293°
2026-04-27 20:15 42.54490 -1.16703 25148 ft 336 kts 293°
2026-04-27 20:15 42.55507 -1.19544 24819 ft 334 kts 292°
2026-04-27 20:16 42.56520 -1.22373 24486 ft 333 kts 292°
2026-04-27 20:16 42.57531 -1.25201 24158 ft 333 kts 292°
2026-04-27 20:16 42.58538 -1.28023 23807 ft 333 kts 292°
2026-04-27 20:16 42.59547 -1.30850 23449 ft 332 kts 292°
2026-04-27 20:17 42.60548 -1.33660 23076 ft 330 kts 292°
2026-04-27 20:17 42.61546 -1.36460 22729 ft 329 kts 293°
2026-04-27 20:17 42.62534 -1.39254 22402 ft 326 kts 292°
2026-04-27 20:17 42.63508 -1.42030 22072 ft 324 kts 292°
2026-04-27 20:18 42.64474 -1.44788 21757 ft 322 kts 292°
2026-04-27 20:18 42.65421 -1.47494 21423 ft 320 kts 292°
2026-04-27 20:18 42.66377 -1.50224 21112 ft 318 kts 292°
2026-04-27 20:18 42.67324 -1.52930 20800 ft 316 kts 292°
2026-04-27 20:19 42.68265 -1.55619 20479 ft 314 kts 293°
2026-04-27 20:19 42.69204 -1.58282 20161 ft 312 kts 293°
2026-04-27 20:19 42.70143 -1.60940 19837 ft 310 kts 293°
2026-04-27 20:19 42.71075 -1.63581 19537 ft 309 kts 293°
2026-04-27 20:20 42.71999 -1.66208 19215 ft 307 kts 292°
2026-04-27 20:20 42.72919 -1.68822 18907 ft 306 kts 292°
2026-04-27 20:20 42.73898 -1.71389 18603 ft 306 kts 297°
2026-04-27 20:20 42.75021 -1.73843 18272 ft 306 kts 300°
2026-04-27 20:21 42.76171 -1.76237 17918 ft 305 kts 300°
2026-04-27 20:21 42.77334 -1.78654 17587 ft 304 kts 300°
2026-04-27 20:21 42.78485 -1.81067 17269 ft 302 kts 300°
2026-04-27 20:21 42.79620 -1.83468 16959 ft 300 kts 300°
2026-04-27 20:22 42.80746 -1.85861 16655 ft 299 kts 300°
2026-04-27 20:22 42.81855 -1.88228 16334 ft 297 kts 300°
2026-04-27 20:22 42.82962 -1.90598 16035 ft 295 kts 300°
2026-04-27 20:22 42.84062 -1.92955 15752 ft 294 kts 300°
2026-04-27 20:23 42.85160 -1.95303 15449 ft 293 kts 300°
2026-04-27 20:23 42.86243 -1.97608 15153 ft 292 kts 300°
2026-04-27 20:23 42.87336 -1.99933 14856 ft 290 kts 300°
2026-04-27 20:23 42.88425 -2.02253 14564 ft 290 kts 300°
2026-04-27 20:24 42.89511 -2.04570 14271 ft 289 kts 300°
2026-04-27 20:24 42.90593 -2.06878 13974 ft 288 kts 300°
2026-04-27 20:24 42.91672 -2.09183 13655 ft 288 kts 300°
2026-04-27 20:24 42.92746 -2.11478 13338 ft 287 kts 300°
2026-04-27 20:25 42.93816 -2.13768 13035 ft 285 kts 300°
2026-04-27 20:25 42.94883 -2.16050 12712 ft 284 kts 300°
2026-04-27 20:25 42.95942 -2.18318 12447 ft 281 kts 300°
2026-04-27 20:25 42.96974 -2.20532 12165 ft 279 kts 300°
2026-04-27 20:26 42.98011 -2.22758 11889 ft 277 kts 300°
2026-04-27 20:26 42.99142 -2.24887 11646 ft 275 kts 309°
2026-04-27 20:26 43.00427 -2.26808 11409 ft 274 kts 311°
2026-04-27 20:26 43.01751 -2.28704 11139 ft 278 kts 312°
2026-04-27 20:27 43.03095 -2.30639 10866 ft 284 kts 311°
2026-04-27 20:27 43.04457 -2.32620 10567 ft 286 kts 311°
2026-04-27 20:27 43.05813 -2.34611 10282 ft 285 kts 311°
2026-04-27 20:27 43.07143 -2.36577 10147 ft 278 kts 311°
2026-04-27 20:28 43.08439 -2.38502 9846 ft 278 kts 311°
2026-04-27 20:28 43.09746 -2.40447 9547 ft 277 kts 311°
2026-04-27 20:28 43.11049 -2.42386 9260 ft 276 kts 311°
2026-04-27 20:28 43.11925 -2.43691 9062 ft 275 kts 311°
2026-04-27 20:29 43.13634 -2.46232 8688 ft 273 kts 311°
2026-04-27 20:29 43.14836 -2.48216 8472 ft 265 kts 297°
2026-04-27 20:29 43.15474 -2.50498 8238 ft 254 kts 287°
2026-04-27 20:29 43.16094 -2.52845 7451 ft 268 kts 294°
2026-04-27 20:30 43.16958 -2.55156 6775 ft 274 kts 297°
2026-04-27 20:30 43.17843 -2.57474 6113 ft 272 kts 296°
2026-04-27 20:30 43.18628 -2.59613 5600 ft 266 kts 296°
2026-04-27 20:30 43.19456 -2.61897 5202 ft 255 kts 296°
2026-04-27 20:31 43.20234 -2.64039 4816 ft 246 kts 297°
2026-04-27 20:31 43.20982 -2.66092 4441 ft 236 kts 297°
2026-04-27 20:31 43.21695 -2.68048 4108 ft 227 kts 297°
2026-04-27 20:31 43.22384 -2.69937 3768 ft 214 kts 297°
2026-04-27 20:32 43.23028 -2.71706 3454 ft 200 kts 297°
2026-04-27 20:32 43.23631 -2.73356 3167 ft 188 kts 297°
2026-04-27 20:32 43.24202 -2.74921 2911 ft 179 kts 297°
2026-04-27 20:32 43.24741 -2.76399 2683 ft 165 kts 298°
2026-04-27 20:33 43.25230 -2.77733 2436 ft 150 kts 297°
2026-04-27 20:33 43.25688 -2.78988 2178 ft 144 kts 297°
2026-04-27 20:33 43.26135 -2.80210 1984 ft 144 kts 298°
2026-04-27 20:33 43.26585 -2.81440 1750 ft 144 kts 297°
2026-04-27 20:34 43.27032 -2.82687 1446 ft 147 kts 296°
2026-04-27 20:34 43.27439 -2.83854 1243 ft 143 kts 297°
2026-04-27 20:34 43.27815 -2.84892 1117 ft 145 kts 298°
2026-04-27 20:34 43.28279 -2.86137 844 ft 146 kts 298°
2026-04-27 20:35 43.28731 -2.87348 682 ft 143 kts 298°
2026-04-27 20:35 43.29191 -2.88575 451 ft 145 kts 298°
2026-04-27 20:35 43.29646 -2.89794 211 ft 142 kts 297°
2026-04-27 20:35 43.30043 -2.90895 130 ft 122 kts 297°
2026-04-27 20:36 43.30336 -2.91674 130 ft 90 kts 297°
2026-04-27 20:36 43.30529 -2.92204 126 ft 23 kts 296°
2026-04-27 20:36 43.30581 -2.92350 127 ft 6 kts 293°
2026-04-27 20:36 43.30596 -2.92402 129 ft 6 kts 283°
2026-04-27 20:37 43.30601 -2.92468 130 ft 7 kts 274°
2026-04-27 20:37 43.30599 -2.92534 130 ft 7 kts 252°
2026-04-27 20:37 43.30583 -2.92596 130 ft 7 kts 244°
2026-04-27 20:37 43.30554 -2.92650 127 ft 7 kts 231°
2026-04-27 20:38 43.30507 -2.92724 127 ft 15 kts 229°
2026-04-27 20:38 43.30433 -2.92836 124 ft 16 kts 229°
2026-04-27 20:38 43.30390 -2.92905 124 ft 0 kts 229°
2026-04-27 20:38 43.30369 -2.92937 123 ft 14 kts 227°
2026-04-27 20:39 43.30272 -2.92953 122 ft 19 kts 105°
2026-04-27 20:39 43.30257 -2.92771 123 ft 22 kts 95°
2026-04-27 20:39 43.30238 -2.92533 119 ft 26 kts 97°
2026-04-27 20:39 43.30215 -2.92297 125 ft 24 kts 98°
2026-04-27 20:40 43.30195 -2.92077 129 ft 23 kts 96°
2026-04-27 20:40 43.30175 -2.91856 128 ft 24 kts 97°
2026-04-27 20:40 43.30158 -2.91642 132 ft 21 kts 96°
2026-04-27 20:40 43.30141 -2.91444 127 ft 21 kts 97°
2026-04-27 20:41 43.30124 -2.91252 123 ft 20 kts 95°
2026-04-27 20:41 43.30107 -2.91069 130 ft 19 kts 99°
2026-04-27 20:41 43.30094 -2.90889 125 ft 19 kts 93°
2026-04-27 20:41 43.30084 -2.90714 129 ft 18 kts 94°
2026-04-27 20:42 43.30144 -2.90580 136 ft 17 kts 27°
2026-04-27 20:42 43.30252 -2.90529 142 ft 17 kts 347°
2026-04-27 20:42 43.30340 -2.90618 145 ft 14 kts 314°
2026-04-27 20:42 43.30372 -2.90700 145 ft 7 kts 294°
2026-04-27 20:43 43.30404 -2.90720 147 ft 4 kts 19°
2026-04-27 20:43 43.30430 -2.90701 150 ft 4 kts 26°
2026-04-27 20:43 43.30447 -2.90690 151 ft 0 kts 26°
2026-04-27 20:43 43.30450 -2.90688 152 ft 0 kts 26°